149  
AXUS43 KGID 300802  
MISGRI  
 
GID CWA HOURLY WEATHER ROUNDUP  
NATIONAL WEATHER SERVICE HASTINGS NE  
300 AM CDT THU MAR 30 2017  
 
NOTE: "FAIR" INDICATES FEW OR NO CLOUDS BELOW 12,000 FEET WITH NO  
SIGNIFICANT WEATHER AND/OR OBSTRUCTIONS TO VISIBILITY.  
   
..SOUTH CENTRAL NEBRASKA
 
 
 
CITY SKY/WX TMP DP RH WIND PRES REMARKS  
GRAND ISLAND CLOUDY 37 37 100 N18 29.79F WCI 27  
HASTINGS CLOUDY 37 35 92 N22G29 29.78S WCI 26  
KEARNEY CLOUDY 37 34 87 N24 29.82S WCI 26  
ORD CLOUDY 37 34 89 N17G24 29.84F WCI 27  
YORK CLOUDY 39 39 100 N21G31 29.75S WCI 29  
AURORA CLOUDY 38 38 100 N21G26 29.77S WCI 27  
LEXINGTON CLOUDY 38 36 89 N13 29.85S WCI 31  
HOLDREGE CLOUDY 37 35 90 N15G26 29.81S WCI 28  
HEBRON CLOUDY 39 38 96 N17G28 29.69S WCI 30  
   
..NEBRASKA PANHANDLE
 
 
 
CITY SKY/WX TMP DP RH WIND PRES REMARKS  
CHADRON CLEAR 35 32 88 CALM 29.89F  
ALLIANCE CLEAR 27 27 100 W6 29.88F WCI 20  
SCOTTSBLUFF CLEAR 35 31 85 E5 29.89F WCI 31  
SIDNEY CLEAR 33 31 92 W7 29.90F WCI 27  
   
..WESTERN AND NORTH CENTRAL NEBRASKA
 
 
 
CITY SKY/WX TMP DP RH WIND PRES REMARKS  
VALENTINE CLOUDY 39 35 86 NE8 29.91F WCI 33  
AINSWORTH FOG 37 37 100 NE8 29.90F VSB 1/4 WCI 30  
ONEILL CLOUDY 37 37 98 N13 29.90S FOG WCI 29  
BROKEN BOW CLOUDY 37 34 89 N16 29.85F WCI 28  
IMPERIAL CLOUDY 35 33 92 N10 29.88S WCI 27  
NORTH PLATTE CLOUDY 40 34 79 N10 29.87F WCI 33  
MCCOOK CLOUDY 39 36 89 N17G25 29.85F WCI 30  
   
..EASTERN NEBRASKA
 
 
 
CITY SKY/WX TMP DP RH WIND PRES REMARKS  
NORFOLK CLOUDY 38 35 89 N17G23 29.81F WCI 28  
SO SIOUX CITY CLOUDY 40 38 93 NE16G23 29.82F WCI 31  
TEKAMAH CLOUDY 41 38 89 N16 29.77F  
COLUMBUS CLOUDY 39 36 87 N16G23 29.78F WCI 30  
ALBION CLOUDY 39 36 87 N10G17 29.83S WCI 33  
OMAHA EPPLEY CLOUDY 43 38 82 N15 29.73R  
OFFUTT AFB CLOUDY 44 40 88 N10 29.71R  
MILLARD CLOUDY 44 42 90 N8 29.73S  
LINCOLN CLOUDY 41 40 96 N22 29.72F  
NEBRASKA CITY CLOUDY 44 44 100 NE14 29.66R  
BEATRICE DRIZZLE 43 42 99 N20G26 29.65R  
FALLS CITY CLOUDY 48 47 96 E10 29.60R  
   
..NORTHERN KANSAS
 
 
 
CITY SKY/WX TMP DP RH WIND PRES REMARKS  
GOODLAND MOCLDY 34 33 96 NW13 29.86R WCI 25  
HILL CITY CLOUDY 41 39 93 N21G30 29.82S  
NORTON CLOUDY 39 34 81 N22 29.81F WCI 29  
PHILLIPSBURG CLOUDY 39 36 87 NW21G31 29.79F WCI 29  
HAYS N/A 40 37 89 N23G35 29.75F WCI 30  
RUSSELL CLOUDY 39 36 89 NW26 29.72S WCI 28  
CONCORDIA LGT RAIN 40 40 100 N15G24 29.66S WCI 32  
SALINA LGT RAIN 43 40 89 NW24 29.64F  
TOPEKA CLOUDY 51 48 89 SE3 29.56S  
 
CLICK HERE TO GO TO PREVIOUS BULLETINS.

The Nexlab NE Page
The Nexlab KS Page Main Text Page